Time,TemperatureF,DewpointF,PressureIn,WindDirection,WindDirectionDegrees,WindSpeedMPH,WindSpeedGustMPH,Humidity,HourlyPrecipIn,Conditions,Clouds,dailyrainin,SoftwareType,DateUTC
2013-02-12 00:02:00,69.0,-99.9,30.14,SSW,196,8.0,11.0,-999,-99.99,,,-99.99,,2013-02-12 05:02:00,
2013-02-12 00:11:00,69.0,-99.9,30.14,SSW,210,8.0,11.0,-999,-99.99,,,-99.99,,2013-02-12 05:11:00,
2013-02-12 00:22:00,70.0,-99.9,30.13,SSW,202,9.0,11.0,-999,-99.99,,,-99.99,,2013-02-12 05:22:00,
2013-02-12 00:32:00,70.0,-99.9,30.13,SSW,209,9.0,11.0,-999,-99.99,,,-99.99,,2013-02-12 05:32:00,
2013-02-12 00:42:00,70.0,-99.9,30.12,SSW,197,11.0,13.0,-999,-99.99,,,-99.99,,2013-02-12 05:42:00,
2013-02-12 00:52:00,70.0,-99.9,30.12,SSW,200,12.0,14.0,-999,-99.99,,,-99.99,,2013-02-12 05:52:00,
2013-02-12 01:02:00,70.0,-99.9,30.12,SSW,202,12.0,15.0,-999,-99.99,,,-99.99,,2013-02-12 06:02:00,
2013-02-12 01:12:00,70.0,-99.9,30.12,SSW,202,12.0,15.0,-999,-99.99,,,-99.99,,2013-02-12 06:12:00,
2013-02-12 01:22:00,70.0,-99.9,30.12,SSW,202,12.0,15.0,-999,-99.99,,,-99.99,,2013-02-12 06:22:00,
2013-02-12 01:42:00,70.0,-99.9,30.11,SSW,192,11.0,13.0,-999,-99.99,,,-99.99,,2013-02-12 06:42:00,
2013-02-12 01:52:00,70.0,-99.9,30.12,SSW,199,9.0,13.0,-999,-99.99,,,-99.99,,2013-02-12 06:52:00,
2013-02-12 02:02:00,70.0,-99.9,30.12,SSW,195,9.0,11.0,-999,-99.99,,,-99.99,,2013-02-12 07:02:00,
2013-02-12 02:12:00,70.0,-99.9,30.12,SSW,196,8.0,11.0,-999,-99.99,,,-99.99,,2013-02-12 07:12:00,
2013-02-12 02:22:00,70.0,-99.9,30.11,SSW,200,6.0,8.0,-999,-99.99,,,-99.99,,2013-02-12 07:22:00,
2013-02-12 02:32:00,70.0,-99.9,30.11,South,191,8.0,9.0,-999,-99.99,,,-99.99,,2013-02-12 07:32:00,
2013-02-12 02:42:00,70.0,-99.9,30.11,South,191,8.0,9.0,-999,-99.99,,,-99.99,,2013-02-12 07:42:00,
2013-02-12 02:52:00,70.0,-99.9,30.11,South,191,8.0,9.0,-999,-99.99,,,-99.99,,2013-02-12 07:52:00,
2013-02-12 03:11:00,68.0,-99.9,30.09,SSE,166,5.0,6.0,-999,-99.99,,,-99.99,,2013-02-12 08:11:00,
2013-02-12 03:22:00,68.0,-99.9,30.09,South,170,5.0,6.0,-999,-99.99,,,-99.99,,2013-02-12 08:22:00,
2013-02-12 03:32:00,68.0,-99.9,30.09,South,183,4.0,6.0,-999,-99.99,,,-99.99,,2013-02-12 08:32:00,
2013-02-12 03:42:00,68.0,-99.9,30.09,South,182,3.0,4.0,-999,-99.99,,,-99.99,,2013-02-12 08:42:00,
2013-02-12 03:52:00,68.0,-99.9,30.09,SSW,196,2.0,4.0,-999,-99.99,,,-99.99,,2013-02-12 08:52:00,
2013-02-12 04:02:00,67.0,-99.9,30.09,SSW,200,2.0,4.0,-999,-99.99,,,-99.99,,2013-02-12 09:02:00,
2013-02-12 04:11:00,67.0,-99.9,30.09,South,181,2.0,3.0,-999,-99.99,,,-99.99,,2013-02-12 09:11:00,
2013-02-12 04:22:00,67.0,-99.9,30.09,South,184,2.0,3.0,-999,-99.99,,,-99.99,,2013-02-12 09:22:00,
2013-02-12 04:32:00,67.0,-99.9,30.09,South,187,2.0,2.0,-999,-99.99,,,-99.99,,2013-02-12 09:32:00,
2013-02-12 04:42:00,67.0,-99.9,30.09,South,169,4.0,5.0,-999,-99.99,,,-99.99,,2013-02-12 09:42:00,
2013-02-12 04:52:00,67.0,-99.9,30.08,SSE,163,6.0,6.0,-999,-99.99,,,-99.99,,2013-02-12 09:52:00,
2013-02-12 05:02:00,67.0,-99.9,30.08,SSE,163,7.0,8.0,-999,-99.99,,,-99.99,,2013-02-12 10:02:00,
2013-02-12 05:11:00,67.0,-99.9,30.08,SSE,167,7.0,8.0,-999,-99.99,,,-99.99,,2013-02-12 10:11:00,
2013-02-12 05:22:00,67.0,-99.9,30.08,SSE,167,7.0,8.0,-999,-99.99,,,-99.99,,2013-02-12 10:22:00,
2013-02-12 05:32:00,67.0,-99.9,30.08,South,170,6.0,8.0,-999,-99.99,,,-99.99,,2013-02-12 10:32:00,
2013-02-12 05:43:00,67.0,-99.9,30.09,South,172,6.0,7.0,-999,-99.99,,,-99.99,,2013-02-12 10:43:00,
2013-02-12 05:52:00,67.0,-99.9,30.09,SSE,167,5.0,6.0,-999,-99.99,,,-99.99,,2013-02-12 10:52:00,
2013-02-12 06:02:00,67.0,-99.9,30.08,SSE,165,5.0,6.0,-999,-99.99,,,-99.99,,2013-02-12 11:02:00,
2013-02-12 06:11:00,67.0,-99.9,30.08,SSE,160,5.0,7.0,-999,-99.99,,,-99.99,,2013-02-12 11:11:00,
2013-02-12 06:22:00,67.0,-99.9,30.08,SSE,156,6.0,7.0,-999,-99.99,,,-99.99,,2013-02-12 11:22:00,
2013-02-12 06:32:00,66.0,-99.9,30.08,SSE,157,7.0,8.0,-999,-99.99,,,-99.99,,2013-02-12 11:32:00,
2013-02-12 06:42:00,66.0,-99.9,30.09,SSE,160,8.0,9.0,-999,-99.99,,,-99.99,,2013-02-12 11:42:00,
2013-02-12 06:53:00,66.0,-99.9,30.09,SSE,153,6.0,7.0,-999,-99.99,,,-99.99,,2013-02-12 11:53:00,
2013-02-12 07:02:00,66.0,-99.9,30.09,SSE,148,6.0,6.0,-999,-99.99,,,-99.99,,2013-02-12 12:02:00,
2013-02-12 07:11:00,66.0,-99.9,30.09,SSE,148,5.0,6.0,-999,-99.99,,,-99.99,,2013-02-12 12:11:00,
2013-02-12 07:22:00,66.0,-99.9,30.10,SE,145,5.0,6.0,-999,-99.99,,,-99.99,,2013-02-12 12:22:00,
2013-02-12 07:32:00,66.0,-99.9,30.10,SSE,158,6.0,6.0,-999,-99.99,,,-99.99,,2013-02-12 12:32:00,
2013-02-12 07:42:00,66.0,-99.9,30.10,SSE,159,4.0,5.0,-999,-99.99,,,-99.99,,2013-02-12 12:42:00,
2013-02-12 07:53:00,66.0,-99.9,30.11,SSE,160,2.0,4.0,-999,-99.99,,,-99.99,,2013-02-12 12:53:00,
2013-02-12 08:02:00,66.0,-99.9,30.11,South,169,2.0,3.0,-999,-99.99,,,-99.99,,2013-02-12 13:02:00,
2013-02-12 08:11:00,66.0,-99.9,30.11,SSE,155,2.0,3.0,-999,-99.99,,,-99.99,,2013-02-12 13:11:00,
2013-02-12 08:22:00,67.0,-99.9,30.11,SSE,148,3.0,5.0,-999,-99.99,,,-99.99,,2013-02-12 13:22:00,
2013-02-12 08:32:00,67.0,-99.9,30.11,SE,140,2.0,3.0,-999,-99.99,,,-99.99,,2013-02-12 13:32:00,
2013-02-12 08:42:00,67.0,-99.9,30.12,SSE,150,3.0,4.0,-999,-99.99,,,-99.99,,2013-02-12 13:42:00,
2013-02-12 08:52:00,67.0,-99.9,30.12,SSE,154,4.0,5.0,-999,-99.99,,,-99.99,,2013-02-12 13:52:00,
2013-02-12 09:01:00,67.0,-99.9,30.12,SSE,154,5.0,6.0,-999,-99.99,,,-99.99,,2013-02-12 14:01:00,
2013-02-12 09:12:00,67.0,-99.9,30.12,SSE,158,5.0,6.0,-999,-99.99,,,-99.99,,2013-02-12 14:12:00,
2013-02-12 09:22:00,67.0,-99.9,30.12,SSE,153,5.0,6.0,-999,-99.99,,,-99.99,,2013-02-12 14:22:00,
2013-02-12 09:32:00,67.0,-99.9,30.13,SSE,152,4.0,6.0,-999,-99.99,,,-99.99,,2013-02-12 14:32:00,
2013-02-12 09:42:00,68.0,-99.9,30.13,ESE,122,4.0,5.0,-999,-99.99,,,-99.99,,2013-02-12 14:42:00,
2013-02-12 09:52:00,68.0,-99.9,30.13,SE,124,3.0,4.0,-999,-99.99,,,-99.99,,2013-02-12 14:52:00,
2013-02-12 10:02:00,68.0,-99.9,30.13,SE,128,2.0,3.0,-999,-99.99,,,-99.99,,2013-02-12 15:02:00,
2013-02-12 10:11:00,69.0,-99.9,30.13,SE,137,2.0,3.0,-999,-99.99,,,-99.99,,2013-02-12 15:11:00,
2013-02-12 10:22:00,69.0,-99.9,30.14,SE,141,2.0,3.0,-999,-99.99,,,-99.99,,2013-02-12 15:22:00,
2013-02-12 10:32:00,69.0,-99.9,30.14,SE,126,3.0,4.0,-999,-99.99,,,-99.99,,2013-02-12 15:32:00,
2013-02-12 10:42:00,70.0,-99.9,30.13,SE,130,3.0,4.0,-999,-99.99,,,-99.99,,2013-02-12 15:42:00,
2013-02-12 10:52:00,70.0,-99.9,30.13,ESE,122,3.0,4.0,-999,-99.99,,,-99.99,,2013-02-12 15:52:00,
2013-02-12 11:02:00,71.0,-99.9,30.13,SE,140,2.0,4.0,-999,-99.99,,,-99.99,,2013-02-12 16:02:00,
2013-02-12 11:11:00,71.0,-99.9,30.13,SE,143,3.0,5.0,-999,-99.99,,,-99.99,,2013-02-12 16:11:00,
2013-02-12 11:22:00,71.0,-99.9,30.13,SE,146,4.0,7.0,-999,-99.99,,,-99.99,,2013-02-12 16:22:00,
2013-02-12 11:32:00,73.0,-99.9,30.13,South,183,10.0,15.0,-999,-99.99,,,-99.99,,2013-02-12 16:32:00,
2013-02-12 11:42:00,73.0,-99.9,30.12,South,189,11.0,16.0,-999,-99.99,,,-99.99,,2013-02-12 16:42:00,
2013-02-12 11:52:00,74.0,-99.9,30.12,SSW,202,13.0,15.0,-999,-99.99,,,-99.99,,2013-02-12 16:52:00,
2013-02-12 12:01:00,74.0,-99.9,30.11,South,190,14.0,17.0,-999,-99.99,,,-99.99,,2013-02-12 17:01:00,
2013-02-12 12:12:00,74.0,-99.9,30.11,SSW,195,14.0,19.0,-999,-99.99,,,-99.99,,2013-02-12 17:12:00,
2013-02-12 12:21:00,74.0,-99.9,30.11,SSW,199,16.0,20.0,-999,-99.99,,,-99.99,,2013-02-12 17:21:00,
2013-02-12 12:32:00,74.0,-99.9,30.10,SSW,199,15.0,19.0,-999,-99.99,,,-99.99,,2013-02-12 17:32:00,
2013-02-12 12:42:00,75.0,-99.9,30.10,SSW,198,15.0,21.0,-999,-99.99,,,-99.99,,2013-02-12 17:42:00,
2013-02-12 12:52:00,75.0,-99.9,30.09,South,191,17.0,21.0,-999,-99.99,,,-99.99,,2013-02-12 17:52:00,
2013-02-12 13:02:00,74.0,-99.9,30.09,South,189,17.0,22.0,-999,-99.99,,,-99.99,,2013-02-12 18:02:00,
2013-02-12 13:12:00,74.0,-99.9,30.08,South,186,18.0,23.0,-999,-99.99,,,-99.99,,2013-02-12 18:12:00,
2013-02-12 13:23:00,75.0,-99.9,30.07,SSW,194,16.0,22.0,-999,-99.99,,,-99.99,,2013-02-12 18:23:00,
2013-02-12 13:32:00,75.0,-99.9,30.07,South,191,17.0,22.0,-999,-99.99,,,-99.99,,2013-02-12 18:32:00,
2013-02-12 13:42:00,75.0,-99.9,30.06,SSW,198,16.0,21.0,-999,-99.99,,,-99.99,,2013-02-12 18:42:00,
2013-02-12 13:52:00,74.0,-99.9,30.05,SSW,193,21.0,28.0,-999,-99.99,,,-99.99,,2013-02-12 18:52:00,
2013-02-12 14:02:00,75.0,-99.9,30.04,SSW,192,19.0,23.0,-999,-99.99,,,-99.99,,2013-02-12 19:02:00,
2013-02-12 14:11:00,74.0,-99.9,30.04,SSW,195,21.0,24.0,-999,-99.99,,,-99.99,,2013-02-12 19:11:00,
2013-02-12 14:22:00,74.0,-99.9,30.03,SSW,192,19.0,26.0,-999,-99.99,,,-99.99,,2013-02-12 19:22:00,
2013-02-12 14:32:00,74.0,-99.9,30.02,South,190,21.0,26.0,-999,-99.99,,,-99.99,,2013-02-12 19:32:00,
2013-02-12 14:42:00,74.0,-99.9,30.01,SSW,192,22.0,26.0,-999,-99.99,,,-99.99,,2013-02-12 19:42:00,
2013-02-12 14:52:00,74.0,-99.9,30.01,SSW,193,18.0,26.0,-999,-99.99,,,-99.99,,2013-02-12 19:52:00,
2013-02-12 15:02:00,74.0,-99.9,30.00,South,187,20.0,24.0,-999,-99.99,,,-99.99,,2013-02-12 20:02:00,
2013-02-12 15:11:00,74.0,-99.9,30.00,South,189,19.0,26.0,-999,-99.99,,,-99.99,,2013-02-12 20:11:00,
2013-02-12 15:22:00,74.0,-99.9,30.01,SSW,196,19.0,23.0,-999,-99.99,,,-99.99,,2013-02-12 20:22:00,
2013-02-12 15:32:00,74.0,-99.9,30.00,South,190,18.0,23.0,-999,-99.99,,,-99.99,,2013-02-12 20:32:00,
2013-02-12 15:42:00,74.0,-99.9,30.00,SSW,196,19.0,26.0,-999,-99.99,,,-99.99,,2013-02-12 20:42:00,
2013-02-12 15:52:00,74.0,-99.9,30.01,South,191,16.0,24.0,-999,-99.99,,,-99.99,,2013-02-12 20:52:00,
2013-02-12 16:02:00,75.0,-99.9,30.01,SSW,206,14.0,19.0,-999,-99.99,,,-99.99,,2013-02-12 21:02:00,
2013-02-12 16:11:00,75.0,-99.9,30.01,SSW,198,15.0,19.0,-999,-99.99,,,-99.99,,2013-02-12 21:11:00,
2013-02-12 16:21:00,75.0,-99.9,30.01,SSW,204,18.0,26.0,-999,-99.99,,,-99.99,,2013-02-12 21:21:00,
2013-02-12 16:32:00,75.0,-99.9,30.00,SSW,199,14.0,22.0,-999,-99.99,,,-99.99,,2013-02-12 21:32:00,
2013-02-12 16:42:00,74.0,-99.9,30.00,SSW,202,17.0,21.0,-999,-99.99,,,-99.99,,2013-02-12 21:42:00,
2013-02-12 16:52:00,74.0,-99.9,30.00,SSW,208,16.0,19.0,-999,-99.99,,,-99.99,,2013-02-12 21:52:00,
2013-02-12 17:02:00,74.0,-99.9,30.00,SSW,204,15.0,21.0,-999,-99.99,,,-99.99,,2013-02-12 22:02:00,
2013-02-12 17:12:00,74.0,-99.9,30.00,SSW,205,13.0,17.0,-999,-99.99,,,-99.99,,2013-02-12 22:12:00,
2013-02-12 17:22:00,74.0,-99.9,30.00,SSW,205,16.0,21.0,-999,-99.99,,,-99.99,,2013-02-12 22:22:00,
2013-02-12 17:32:00,74.0,-99.9,29.99,SSW,201,15.0,21.0,-999,-99.99,,,-99.99,,2013-02-12 22:32:00,
2013-02-12 17:42:00,74.0,-99.9,29.99,SSW,201,14.0,18.0,-999,-99.99,,,-99.99,,2013-02-12 22:42:00,
2013-02-12 17:52:00,73.0,-99.9,29.99,SSW,199,13.0,18.0,-999,-99.99,,,-99.99,,2013-02-12 22:52:00,
2013-02-12 18:02:00,73.0,-99.9,29.99,SSW,201,14.0,17.0,-999,-99.99,,,-99.99,,2013-02-12 23:02:00,
2013-02-12 18:12:00,73.0,-99.9,29.99,SSW,198,13.0,16.0,-999,-99.99,,,-99.99,,2013-02-12 23:12:00,
2013-02-12 18:22:00,73.0,-99.9,29.99,SSW,200,12.0,17.0,-999,-99.99,,,-99.99,,2013-02-12 23:22:00,
2013-02-12 18:32:00,73.0,-99.9,29.99,SSW,200,13.0,17.0,-999,-99.99,,,-99.99,,2013-02-12 23:32:00,
2013-02-12 18:42:00,73.0,-99.9,29.99,SSW,195,11.0,17.0,-999,-99.99,,,-99.99,,2013-02-12 23:42:00,
2013-02-12 18:52:00,72.0,-99.9,29.99,SSW,200,13.0,18.0,-999,-99.99,,,-99.99,,2013-02-12 23:52:00,
2013-02-12 19:02:00,72.0,-99.9,29.99,SSW,198,10.0,16.0,-999,-99.99,,,-99.99,,2013-02-13 00:02:00,
2013-02-12 19:11:00,72.0,-99.9,29.99,SSW,201,12.0,16.0,-999,-99.99,,,-99.99,,2013-02-13 00:11:00,
2013-02-12 19:22:00,72.0,-99.9,29.99,SSW,202,13.0,17.0,-999,-99.99,,,-99.99,,2013-02-13 00:22:00,
2013-02-12 19:32:00,72.0,-99.9,29.99,SSW,201,13.0,19.0,-999,-99.99,,,-99.99,,2013-02-13 00:32:00,
2013-02-12 19:42:00,72.0,-99.9,29.99,SSW,205,12.0,16.0,-999,-99.99,,,-99.99,,2013-02-13 00:42:00,
2013-02-12 19:52:00,71.0,-99.9,29.99,SSW,207,14.0,17.0,-999,-99.99,,,-99.99,,2013-02-13 00:52:00,
2013-02-12 20:01:00,71.0,-99.9,29.99,SSW,202,14.0,20.0,-999,-99.99,,,-99.99,,2013-02-13 01:01:00,
2013-02-12 20:11:00,71.0,-99.9,29.99,SSW,203,14.0,17.0,-999,-99.99,,,-99.99,,2013-02-13 01:11:00,
2013-02-12 20:22:00,71.0,-99.9,30.00,SSW,208,14.0,17.0,-999,-99.99,,,-99.99,,2013-02-13 01:22:00,
2013-02-12 20:32:00,71.0,-99.9,30.00,SW,222,11.0,17.0,-999,-99.99,,,-99.99,,2013-02-13 01:32:00,
2013-02-12 20:42:00,71.0,-99.9,30.00,SW,224,14.0,18.0,-999,-99.99,,,-99.99,,2013-02-13 01:42:00,
2013-02-12 20:52:00,71.0,-99.9,30.00,SSW,203,11.0,16.0,-999,-99.99,,,-99.99,,2013-02-13 01:52:00,
2013-02-12 21:01:00,71.0,-99.9,30.00,SSW,204,11.0,14.0,-999,-99.99,,,-99.99,,2013-02-13 02:01:00,
2013-02-12 21:11:00,71.0,-99.9,30.00,SSW,209,10.0,14.0,-999,-99.99,,,-99.99,,2013-02-13 02:11:00,
2013-02-12 21:22:00,71.0,-99.9,30.01,SSW,202,10.0,13.0,-999,-99.99,,,-99.99,,2013-02-13 02:22:00,
2013-02-12 21:32:00,71.0,-99.9,30.01,SSW,204,9.0,14.0,-999,-99.99,,,-99.99,,2013-02-13 02:32:00,
2013-02-12 21:42:00,71.0,-99.9,30.00,SSW,203,11.0,13.0,-999,-99.99,,,-99.99,,2013-02-13 02:42:00,
2013-02-12 21:52:00,71.0,-99.9,30.00,SSW,212,10.0,13.0,-999,-99.99,,,-99.99,,2013-02-13 02:52:00,
2013-02-12 22:02:00,71.0,-99.9,30.01,SW,216,10.0,14.0,-999,-99.99,,,-99.99,,2013-02-13 03:02:00,
2013-02-12 22:12:00,71.0,-99.9,30.01,SSW,208,11.0,15.0,-999,-99.99,,,-99.99,,2013-02-13 03:12:00,
2013-02-12 22:22:00,71.0,-99.9,30.01,SSW,202,12.0,15.0,-999,-99.99,,,-99.99,,2013-02-13 03:22:00,
2013-02-12 22:32:00,71.0,-99.9,30.01,SSW,208,11.0,14.0,-999,-99.99,,,-99.99,,2013-02-13 03:32:00,
2013-02-12 22:42:00,71.0,-99.9,30.01,SSW,212,8.0,13.0,-999,-99.99,,,-99.99,,2013-02-13 03:42:00,
2013-02-12 22:52:00,71.0,-99.9,30.01,SSW,203,13.0,16.0,-999,-99.99,,,-99.99,,2013-02-13 03:52:00,
2013-02-12 23:01:00,71.0,-99.9,30.01,SSW,204,12.0,19.0,-999,-99.99,,,-99.99,,2013-02-13 04:01:00,
2013-02-12 23:11:00,71.0,-99.9,30.01,SSW,201,13.0,17.0,-999,-99.99,,,-99.99,,2013-02-13 04:11:00,
2013-02-12 23:22:00,71.0,-99.9,30.01,SSW,207,12.0,15.0,-999,-99.99,,,-99.99,,2013-02-13 04:22:00,
2013-02-12 23:32:00,71.0,-99.9,30.01,SSW,212,11.0,14.0,-999,-99.99,,,-99.99,,2013-02-13 04:32:00,
2013-02-12 23:42:00,71.0,-99.9,30.01,SSW,205,11.0,15.0,-999,-99.99,,,-99.99,,2013-02-13 04:42:00,
2013-02-12 23:52:00,71.0,-99.9,30.00,SSW,200,11.0,16.0,-999,-99.99,,,-99.99,,2013-02-13 04:52:00,